sat.trackr.live / text

‹ back to catalog

STARLINK-33791

NORAD 63594 · 2025-076AB

PAYLOAD ACTIVE UNKNOWN

§ Identity

Operator
Country
US
Launch date
2025-04-14
Launch site
AFETR
Launch vehicle
Mass (kg)
RCS (m²)

Purposes: comms

External: N2YO · Heavens-Above · Gunter

§ Orbital elements

Epoch: 2026-05-24T16:55:11.980992Z

Period
94.27 min
Inclination
43.0004°
Eccentricity
0.0001886
Mean motion
15.27597216 rev/d
Perigee alt
481.7 km
Apogee alt
484.3 km
Semi-major
6,861.1 km
B*
8.8740e-4
RAAN
252.5975°
Arg perigee
267.8631°
Mean anomaly
92.2004°
Rev number
6,345

§ Raw data

STARLINK-337911 63594U 25076AB  26144.70499978  .00024251  00000+0  88740-3 0  99902 63594  43.0004 252.5975 0001886 267.8631  92.2004 15.27597216 63451

JSON: /api/v1/satellites/63594 · /tle

For live sub-satellite position, see the globe view (requires WebGL).

§ Visibility from observer

Set your observer location to see the next 7 days of passes ≥ 10°. The values pass through the URL so the page stays shareable.

No JS? Fill the form by hand. The geolocation button needs JavaScript.